Mineral Wells, TX

5:07 AM CDT on May 28, 2017 (GMT -0500)
Mineral Wells

Weather History for KMWL - November, 2012

Change the Weather History Date:

Tuesday, November 13, 2012

  Actual Average Record
Temperature  
Mean Temperature 42 °F -  
Max Temperature 59 °F 64 °F 84 °F (1999)
Min Temperature 26 °F 45 °F 21 °F (2013)
Degree Days  
Heating Degree Days 22    
Moisture  
Dew Point 22 °F    
Average Humidity 48    
Maximum Humidity 84    
Minimum Humidity 20    
Precipitation  
Precipitation 0.00 in - - ()
Sea Level Pressure  
Sea Level Pressure 30.41 in    
Wind  
Wind Speed 3 mph (SE)    
Max Wind Speed 13 mph    
Max Gust Speed 18 mph    
Visibility 10 miles    
Events Snow    
Averages and records for this station are not official NWS values.
T = Trace of Precipitation, MM = Missing Value Source: NWS Daily Summary

Daily Weather History Graph

Daily Weather History Graph

Search for Another Location

Airport or City:

Trip Planner

Search our weather history database for the weather conditions in past years. The results will help you decide how hot, cold, wet, or windy it might be!

Date:

Astronomy

Nov. 13, 2012 Rise Set
Actual Time 7:01 AM CST 5:31 PM CST
Civil Twilight 6:34 AM CST 5:57 PM CST
Nautical Twilight 6:05 AM CST 6:27 PM CST
Astronomical Twilight 5:36 AM CST 6:56 PM CST
Moon 6:40 AM CST (11/13) 5:27 PM CST (11/13)
Length of Visible Light 11h 22m
Length of Day
10h 30m
Waning Crescent, 0% of the Moon is Illuminated
Nov 13
Waning Crescent
Nov 13
New
Nov 20
First Quarter
Nov 28
Full
Dec 6
Last Quarter

Hourly Weather History & Observations

Time (CST) Temp. Windchill Dew Point Humidity Pressure Visibility Wind Dir Wind Speed Gust Speed Precip Events Conditions
12:53 AM 32.0 °F - 23.0 °F 69% 30.50 in 10.0 mi Calm Calm - N/A   Clear
1:53 AM 30.0 °F - 23.0 °F 75% 30.48 in 10.0 mi Calm Calm - N/A   Clear
2:53 AM 30.9 °F - 23.0 °F 72% 30.47 in 10.0 mi Calm Calm - N/A   Clear
3:53 AM 28.9 °F - 23.0 °F 78% 30.46 in 10.0 mi Calm Calm - N/A   Clear
4:53 AM 28.0 °F - 21.9 °F 78% 30.46 in 10.0 mi Calm Calm - N/A   Clear
5:53 AM 28.4 °F - 23.0 °F 80% 30.45 in 10.0 mi Calm Calm - N/A Snow Light Snow
6:53 AM 26.1 °F - 21.9 °F 84% 30.49 in 10.0 mi Calm Calm - 0.00 in   Clear
7:53 AM 30.9 °F - 25.0 °F 79% 30.50 in 10.0 mi Calm Calm - N/A   Clear
8:53 AM 35.1 °F - 28.9 °F 78% 30.50 in 10.0 mi Calm Calm - 0.00 in Snow Light Snow
9:53 AM 45.0 °F 40.6 °F 27.0 °F 49% 30.50 in 10.0 mi SE 8.1 mph - 0.00 in   Clear
10:53 AM 51.1 °F - 23.0 °F 33% 30.48 in 10.0 mi SSE 12.7 mph 18.4 mph N/A   Clear
11:53 AM 55.0 °F - 19.9 °F 25% 30.44 in 10.0 mi SSE 10.4 mph 18.4 mph N/A   Clear
12:53 PM 57.0 °F - 19.9 °F 24% 30.38 in 10.0 mi SE 10.4 mph - N/A   Clear
1:53 PM 59.0 °F - 18.0 °F 20% 30.35 in 10.0 mi South 10.4 mph - N/A   Clear
2:53 PM 59.0 °F - 19.0 °F 21% 30.34 in 10.0 mi South 5.8 mph - N/A   Clear
3:53 PM 57.9 °F - 18.0 °F 21% 30.33 in 10.0 mi South 10.4 mph - N/A   Mostly Cloudy
4:53 PM 55.0 °F - 19.0 °F 24% 30.32 in 10.0 mi SSE 8.1 mph - N/A   Mostly Cloudy
5:53 PM 54.0 °F - 19.9 °F 26% 30.32 in 10.0 mi SE 6.9 mph - N/A   Overcast
6:53 PM 54.0 °F - 21.0 °F 28% 30.33 in 10.0 mi SSE 4.6 mph - N/A   Overcast
7:53 PM 53.1 °F - 23.0 °F 31% 30.34 in 10.0 mi SE 4.6 mph - N/A   Overcast
8:53 PM 51.1 °F - 25.0 °F 36% 30.35 in 10.0 mi ESE 4.6 mph - N/A   Overcast
9:53 PM 48.0 °F - 25.0 °F 41% 30.35 in 10.0 mi ESE 6.9 mph - N/A   Mostly Cloudy
10:53 PM 46.9 °F - 25.0 °F 42% 30.36 in 10.0 mi SE 4.6 mph - N/A   Scattered Clouds
11:53 PM 46.0 °F 44.8 °F 24.1 °F 42% 30.35 in 10.0 mi SE 3.5 mph - N/A   Clear